This is the latest recevied weather packets stored in our database for station/object N1YZ. If no packets are shown the sender has not sent any weather packets the latest 10 day(s).
| Time | Temp. | Humidity | Pressure | Rain* | Wind** | Luminosity | Snow |
|---|---|---|---|---|---|---|---|
| 1777571768 | 20.56° C | 70% | 1032.9 hPa | 0 mm | - | 685 W/m² | - |
| 1777571466 | 20.56° C | 71% | 1033 hPa | 0 mm | - | 275 W/m² | - |
| 1777571162 | 20.56° C | 74% | 1032.9 hPa | 0 mm | - | 280 W/m² | - |
| 1777570857 | 20.56° C | 71% | 1033.1 hPa | 0 mm | - | 328 W/m² | - |
| 1777570554 | 21.11° C | 73% | 1032.9 hPa | 0 mm | - | 374 W/m² | - |
| 1777570250 | 21.11° C | 69% | 1033.1 hPa | 0 mm | - | 224 W/m² | - |
| 1777569945 | 21.67° C | 72% | 1033.2 hPa | 0 mm | - | 330 W/m² | - |
| 1777569641 | 21.11° C | 71% | 1033.2 hPa | 0 mm | - | 575 W/m² | - |
| 1777569338 | 21.11° C | 73% | 1033.2 hPa | 0 mm | - | 368 W/m² | - |
| 1777569034 | 21.11° C | 68% | 1033.3 hPa | 0 mm | - | 476 W/m² | - |
| 1777568731 | 20.56° C | 72% | 1033.4 hPa | 0 mm | - | 450 W/m² | - |
| 1777568429 | 20.56° C | 75% | 1033.2 hPa | 0 mm | - | 415 W/m² | - |
| 1777568125 | 20.56° C | 78% | 1033.4 hPa | 0 mm | - | 361 W/m² | - |
| 1777567822 | 20.56° C | 74% | 1033.3 hPa | 0 mm | - | 413 W/m² | - |
| 1777567518 | 20° C | 73% | 1033.7 hPa | 0 mm | - | 417 W/m² | - |
| 1777567215 | 19.44° C | 78% | 1033.5 hPa | 0 mm | - | 534 W/m² | - |
| 1777566914 | 20° C | 80% | 1033.3 hPa | 0 mm | - | 337 W/m² | - |
| 1777566611 | 20° C | 78% | 1033.3 hPa | 0 mm | - | 271 W/m² | - |
| 1777566309 | 19.44° C | 85% | 1033.3 hPa | 0 mm | - | 484 W/m² | - |
| 1777566006 | 19.44° C | 83% | 1033.3 hPa | 0 mm | - | 430 W/m² | - |
| 1777565701 | 18.89° C | 81% | 1033.3 hPa | 0 mm | - | 232 W/m² | - |
| 1777565398 | 18.89° C | 79% | 1033.3 hPa | 0 mm | - | 191 W/m² | - |
| 1777565094 | 18.89° C | 80% | 1033 hPa | 0 mm | - | 151 W/m² | - |
| 1777564790 | 18.89° C | 88% | 1033.3 hPa | 0 mm | - | 156 W/m² | - |
| 1777564485 | 19.44° C | 83% | 1033.2 hPa | 0 mm | - | 155 W/m² | - |
* Rain latest hour (hover to see other rain measurements)
** Current wind speed in m/s (hover to see current wind gust speed)